Probability
0 0 0 0 0 0 0 0 0 0 0 0 0 0 0 0 0 0 0 0 0 0 0 0 0 0 0 0 0 0 0 0 0 0 0 0 0 0 0 0 0 0 0
0 0 0 0 0 0 0 0 0 0 0 0 0 0 0 0 0 0 0 0 0 0 0 0 0 0 0 0 0 0 0 0 0 0 0 0 0 0 0 0 0 0 0
0 0 0 0 0 0 0 0 0 0 0 0 0 0 0 0 0 0 0 0 0 0 0 0 0 0 0 0 0 0 0 0 0 0 0 0 0 0 0 0 0 0 0
0 0 0 0 0 0 0 0 0 0 0 0 0 0 0 0 0 0 0 0 0 0 0 0 0 0 0 0 0 0 0 0 0 0 0 0 0 0 0 0 0 0 0
0 0 0 0 0 0 0 0 0 0 0 0 0 0 0 0 0 0 0 0 0 0 0 0 0 0 0 0 0 0 0 0 0 0 0 0 0 0 0 0 0 0 0
0 0 0 0 0 0 0 0 0 0 0 0 0 0 0 0 0 0 0 0 0 0 0 0 0 0 0 0 0 0 0 0 0 0 0 0 0 0 0 0 0 0 0
0 0 0 0 0 0 0 0 0 0 0 0 0 0 0 0 0 0 0 0 0 0 0 0 0 0 0 0 0 0 0 0 0 0 0 0 0 0 0 0 0 0 0
0 0 0 0 0 0 0 0 0 0 0 0 0 0 0 0 0 0 0 0 0 0 0 0 0 0 0 0 0 0 0 0 0 0 0 0 0 0 0 0 0 0 0
0 0 0 0 0 0 0 0 0 0 0 0 0 0 0 0 0 0 0 0 0 0 0 0 0 0 0 0 0 0 0 0 0 0 0 0 0 0 0 0 0 0 0
0 0 0 0 0 0 0 0 0 0 0 0 0 0 0 0 0 0 0 0 0 0 0 0 0 0 0 0 0 0 0 0 0 0 0 0 0 0 0 0 0 0 0
0 0 0 0 0 0 0 0 0 0 0 0 0 0 0 0 0 0 0 0 0 0 0 0 0 0 0 0 0 0 0 0 0 0 0 0 0 0 0 0 0 0 0
0 0 0 0 0 0 0 0 0 0 0 0 0 0 0 0 0 0 0 0 0 0 0 0 0 0 0 0 0 0 0 0 0 0 0 0 0 0 0 0 0 0 0
0 0 0 0 0 0 0 0 0 0 0 0 0 0 0 0 0 0 0 0 0 0 0 0 0 0 0 0 0 0 0 0 0 0 0 0 0 0 0 0 0 0 0
0 0 0 0 0 0 0 0 0 0 0 0 0 0 0 0 0 0 0 0 0 0 0 0 0 0 0 0 0 0 0 0 0 0 0 0 0 0 0 0 0 0 0
0 0 0 0 0 0 0 0 0 0 0 0 0 0 0 0 0 0 0 0 0 0 0 0 0 0 0 0 0 0 0 0 0 0 0 0 0 0 0 0 0 0 0
0 0 0 0 0 0 0 0 0 0 0 0 0 0 0 0 0 0 0 0 0 0 0 0 0 0 0 0 0 0 0 0 0 0 0 0 0 0 0 0 0 0 0
0 0 0 0 0 0 0 0 0 0 0 0 0 0 0 0 0 0 0 0 0 0 0 0 0 0 0 0 0 0 0 0 0 0 0 0 0 0 0 0 0 0 0
0 0 0 0 0 0 0 0 0 0 0 0 0 0 0 0 0 0 0 0 0 0 0 0 0 0 0 0 0 0 0 0 0 0 0 0 0 0 0 0 0 0 0
0 0 0 0 0 0 0 0 0 0 0 0 0 0 0 0 0 0 0 0 0 0 0 0 0 0 0 0 0 0 0 0 0 0 0 0 0 0 0 0 0 0 0
0 0 0 0 0 0 0 0 0 0 0 0 0 0 0 0 0 0 0 0 0 0 0 0 0 0 0 0 0 0 0 0 0 0 0 0 0 0 0 0 0 0 0
0 0 0 0 0 0 0 0 0 0 0 0 0 0 0 0 0 0 0 0 0 0 0 0 0 0 0 0 0 0 0 0 0 0 0 0 0 0 0 0 0 0 0
0 0 0 0 0 0 0 0 0 0 0 0 0 0 0 0 0 0 0 0 0 0 0 0 0 0 0 0 0 0 0 0 0 0 0 0 0 0 0 0 0 0 0
0 0 0 0 0 0 0 0 0 0 0 0 0 0 0 0 0 0 0 0 0 0 0 0 0 0 0 0 0 0 0 0 0 0 0 0 0 0 0 0 0 0 0
0 0 0 0 0 0 0 0 0 0 0 0 0 0 0 0 0 0 0 0 0 0 0 0 0 0 0 0 0 0 0 0 0 0 0 0 0 0 0 0 0 0 0
0 0 0 0 0 0 0 0 0 0 0 0 0 0 0 0 0 0 0 0 0 0 0 0 0 0 0 0 0 0 0 0 0 0 0 0 0 0 0 0 0 0 0
0 0 0 0 0 0 0 0 0 0 0 0 0 0 0 0 0 0 0 0 0 0 0 0 0 0 0 0 0 0 0 0 0 0 0 0 0 0 0 0 0 0 0
Wind_Speed
5 5 5 5 6 6 5 6 6 6 7 8 8 8 8 7 6 6 7 7 9 9 8 10 10 9 8 7 6 7 6 6 7 5 4 6 11 11 10 10 9 10 11
3 3 4 4 4 5 5 6 6 7 7 7 8 8 8 8 7 7 8 8 9 10 10 10 11 9 11 9 8 9 8 7 6 6 5 5 8 13 12 11 10 9 8
3 3 3 3 4 4 5 5 6 6 7 7 7 8 8 8 8 8 8 8 9 10 10 11 11 11 13 9 10 10 8 7 6 6 6 4 3 8 10 7 7 6 7
3 4 4 4 4 5 5 6 6 6 7 7 7 8 8 8 9 9 9 9 10 10 10 11 11 12 13 12 11 11 9 9 8 6 5 4 4 7 10 9 8 8 7
4 5 5 5 6 6 6 7 7 7 7 8 8 9 9 8 8 9 9 10 11 11 11 12 12 13 16 14 12 10 10 10 9 9 7 5 7 9 13 10 10 8 7
5 6 7 7 7 7 8 8 9 9 8 9 9 10 10 9 16 21 17 11 11 12 13 13 13 14 15 23 25 21 19 16 15 14 12 11 14 10 10 11 11 8 8
6 7 8 8 9 10 9 10 10 9 9 11 11 11 13 15 24 25 23 15 13 13 14 14 12 12 14 14 20 26 25 29 27 18 18 19 13 13 15 15 15 11 10
7 8 8 9 10 11 10 12 11 10 11 13 14 14 15 19 27 28 27 18 15 15 16 16 16 16 14 16 14 16 18 20 23 21 19 15 10 12 18 17 16 9 3
8 8 8 8 9 10 12 14 12 12 13 14 15 16 17 20 29 31 30 14 14 17 17 16 17 18 23 27 20 18 19 19 25 27 23 18 17 19 19 11 11 11 6
7 8 8 8 9 11 12 14 12 12 16 17 18 17 17 20 29 34 34 15 15 17 16 16 18 21 27 28 21 19 21 19 12 14 19 21 17 17 27 20 17 15 8
9 10 11 10 10 12 13 14 13 15 17 18 20 21 20 21 28 35 35 18 15 16 15 14 14 26 29 30 27 20 24 18 11 14 13 12 10 11 14 15 14 12 12
10 12 12 11 11 11 13 14 14 15 18 19 19 21 18 18 22 27 32 31 27 18 16 14 15 27 29 30 24 24 30 25 12 13 14 15 15 14 11 11 10 6 5
10 11 12 12 11 11 12 15 14 13 14 16 16 17 17 15 17 28 31 32 33 21 15 23 26 30 29 23 27 29 22 15 13 14 15 15 12 10 9 8 8 7 6
11 13 13 13 13 12 11 12 12 13 14 15 16 17 17 16 14 13 13 15 20 20 16 17 25 28 26 23 17 19 15 13 13 13 11 9 8 10 11 11 10 11 8
12 13 13 13 13 13 12 12 15 15 17 19 16 17 18 18 19 28 23 16 13 15 17 13 12 11 12 12 11 12 12 12 13 12 11 11 11 11 10 10 10 11 10
13 13 11 12 12 13 14 14 22 26 32 35 35 33 24 30 37 38 37 37 37 35 25 16 14 12 12 11 10 10 11 11 11 11 11 11 11 12 11 10 10 10 10
12 13 12 12 13 13 14 15 16 19 27 32 34 35 34 35 37 36 35 35 34 32 21 15 14 13 11 10 9 9 9 9 8 10 10 11 11 12 12 11 11 11 10
11 13 13 12 12 13 13 14 15 16 17 17 22 30 33 33 33 33 32 27 18 16 14 14 13 12 10 9 9 8 7 7 8 9 10 11 12 12 12 12 12 12 10
11 10 10 11 12 13 13 14 14 15 15 16 15 18 22 25 28 28 25 13 11 11 11 11 11 10 9 8 8 7 8 8 9 9 10 11 11 11 11 11 11 13 11
9 14 14 11 12 12 12 12 13 14 14 14 14 14 14 13 11 12 11 10 10 9 9 8 8 7 7 6 6 6 7 8 9 8 9 9 10 10 11 12 11 11 9
9 11 13 11 10 11 11 12 12 13 13 13 12 15 23 13 11 12 11 10 9 7 6 4 3 3 3 4 5 7 8 7 7 8 9 9 9 9 9 10 10 10 9
8 8 9 9 10 10 11 11 11 12 12 13 12 13 19 11 10 10 10 11 11 9 7 5 4 4 3 4 5 6 7 8 8 8 9 9 9 9 10 10 10 10 10
7 9 9 9 9 11 11 10 10 11 11 11 11 11 11 10 10 10 10 11 10 10 10 9 8 8 8 7 6 6 6 7 7 9 10 9 9 9 9 10 12 11 10
6 7 8 8 8 8 9 10 10 11 11 11 10 10 10 10 10 11 10 10 10 10 10 10 10 12 13 10 8 7 7 7 7 7 10 10 10 9 9 10 10 11 10
5 6 7 7 7 8 8 9 9 10 10 10 10 10 10 10 10 10 10 9 11 11 13 12 9 11 14 14 11 9 11 12 10 8 8 9 10 10 10 10 9 9 8
5 6 6 6 6 7 7 8 9 10 9 9 10 10 10 10 10 10 10 10 10 10 10 10 12 12 12 10 12 13 13 13 13 12 8 8 9 9 9 8 9 7 7
Wind_Direction
9 356 356 357 354 348 349 350 347 343 340 337 332 327 320 306 285 267 257 251 248 245 240 238 240 235 238 236 232 229 224 205 214 203 186 176 175 181 186 182 185 188 193
343 334 335 338 337 334 333 336 336 333 330 327 325 321 316 311 301 283 270 260 254 250 244 242 243 238 239 233 229 229 226 216 203 194 188 168 185 186 181 181 186 188 187
316 314 313 313 315 315 318 319 319 315 313 313 314 311 308 304 298 288 276 268 260 255 249 245 244 237 242 235 230 229 225 219 214 195 190 179 173 176 172 177 181 184 190
301 302 300 299 303 305 304 301 299 296 295 295 295 293 292 292 289 284 280 275 269 263 256 251 246 240 242 235 233 230 220 217 215 207 187 182 172 171 175 178 187 193 195
294 295 293 295 297 296 293 292 290 288 286 284 285 284 281 281 279 281 279 274 272 270 265 258 253 247 243 237 234 227 216 219 214 213 203 180 184 176 188 184 193 187 198
286 286 288 291 290 288 288 289 290 290 288 287 284 281 279 277 283 286 283 274 270 269 269 264 258 252 248 247 243 234 220 219 219 219 217 209 204 192 180 182 178 171 202
276 280 284 285 285 284 286 287 287 288 287 287 284 280 279 278 284 285 283 279 271 268 266 265 262 254 247 247 248 246 238 231 223 218 224 224 205 191 186 187 192 190 195
270 271 273 275 278 284 286 286 287 287 287 287 287 284 283 280 283 284 285 280 271 266 262 261 261 259 249 246 243 242 240 238 233 227 228 226 209 192 194 197 197 189 89
272 274 279 283 286 289 289 289 291 291 289 286 284 282 280 281 283 285 285 278 271 267 262 258 256 258 256 252 246 243 242 241 241 233 230 223 211 200 189 183 180 178 184
294 303 308 309 306 302 299 298 297 293 289 289 285 283 280 280 282 283 282 275 269 267 264 258 252 252 255 255 247 242 242 239 228 232 232 231 220 208 197 193 189 191 183
324 319 316 317 313 305 301 298 296 293 290 287 285 282 279 277 279 280 279 272 263 263 262 259 254 256 257 255 250 243 242 237 222 222 224 222 213 207 204 199 198 195 189
326 320 315 309 303 300 296 293 291 288 286 284 282 281 277 276 277 278 277 275 272 265 260 258 255 260 261 260 256 246 244 239 228 219 220 219 216 212 204 194 189 192 184
320 309 303 299 294 291 288 290 288 284 281 283 283 283 284 283 283 286 287 285 283 278 270 265 263 263 263 262 259 253 244 231 222 219 218 217 213 203 187 178 164 137 107
307 305 303 301 297 292 287 287 286 284 283 282 283 283 284 283 283 283 282 284 284 283 282 281 277 271 266 257 251 248 236 224 218 218 215 206 190 187 188 183 179 167 148
304 303 302 299 296 295 290 284 284 277 276 282 279 277 280 280 277 279 278 276 274 273 278 274 269 264 258 251 243 233 225 218 214 211 204 196 191 189 187 182 177 172 171
305 305 302 300 297 295 294 292 288 289 290 289 288 286 284 283 287 286 283 281 280 277 276 268 264 258 253 251 243 230 219 215 210 202 196 189 185 182 177 174 175 178 176
295 298 298 297 295 295 294 295 296 296 293 293 292 292 290 289 289 288 285 282 277 274 268 262 258 255 249 245 238 227 217 208 198 192 186 179 174 171 169 170 174 178 176
292 292 292 290 291 291 292 293 294 296 299 297 296 295 296 296 295 292 289 286 274 264 255 255 253 250 243 236 228 218 205 190 186 182 176 172 168 167 169 173 175 176 171
294 292 290 290 290 291 292 293 294 295 296 298 299 302 303 302 301 297 297 284 271 261 253 248 245 239 232 224 216 203 190 182 176 172 169 166 165 164 167 170 171 172 166
294 293 297 294 294 295 297 298 300 301 302 305 308 311 312 309 306 305 302 290 276 262 254 249 241 231 221 206 188 173 168 167 165 162 159 158 158 159 161 163 164 165 162
297 297 298 298 299 300 303 304 305 307 309 312 314 318 331 332 325 324 325 323 318 300 275 257 240 216 183 159 150 147 146 146 145 145 146 148 149 150 151 153 154 152 148
299 303 304 304 305 307 309 310 312 315 318 320 322 326 336 339 336 337 339 342 345 351 358 17 38 45 61 92 117 127 130 131 133 135 136 138 139 140 142 143 145 145 143
306 306 307 307 308 312 317 320 323 325 328 329 331 336 341 345 347 349 351 353 358 5 12 24 37 42 46 52 63 88 113 125 131 136 136 136 137 139 140 142 142 140 142
304 308 311 313 317 321 324 327 329 332 334 335 339 343 347 350 354 358 0 3 9 16 21 29 38 43 49 52 55 62 76 93 105 119 126 130 131 131 131 132 133 137 139
308 310 313 316 321 325 328 331 334 337 340 343 347 350 353 357 2 5 7 12 19 27 30 32 34 39 49 55 60 67 83 91 95 101 108 115 118 119 122 124 126 129 131
314 316 317 320 324 329 333 336 338 341 344 347 350 353 356 1 4 8 11 16 21 26 30 32 36 44 49 57 67 76 82 86 87 91 96 104 109 112 115 117 122 125 130